Time_in_sec,Mx,My,Mz
1323446022.64567184,-0.33902773,0.47819957,-0.81712425
1323446022.69367599,-0.34042343,0.48051471,-0.81861711
1323446022.74449277,-0.33974728,0.47999865,-0.81590360
1323446022.79262853,-0.33781022,0.48120388,-0.81809723
1323446022.84169197,-0.34031320,0.47941259,-0.81682134
1323446022.89262891,-0.33940232,0.48108399,-0.81652886
1323446022.94453311,-0.33885738,0.48155391,-0.81599325
1323446022.99654460,-0.33918524,0.47977138,-0.81822777
1323446023.04169202,-0.33932906,0.47987229,-0.81619948
1323446023.09354758,-0.33936086,0.48120001,-0.81659257
1323446023.14464092,-0.33965990,0.48060960,-0.81736857
1323446023.19363165,-0.33819106,0.48202810,-0.81640714
1323446023.24155712,-0.34067151,0.48109263,-0.81608921
1323446023.29364276,-0.33837822,0.48107541,-0.81672734
1323446023.34464216,-0.34027302,0.47988543,-0.81605881
1323446023.39354181,-0.33938965,0.48036084,-0.81639576
1323446023.44154382,-0.33785629,0.47974786,-0.81681663
1323446023.49440932,-0.33892667,0.48204762,-0.81714606
1323446023.54151583,-0.33851856,0.47973412,-0.81481630
1323446023.59328461,-0.33962181,0.48155966,-0.81578058
1323446023.64218354,-0.33991259,0.48084769,-0.81642783
1323446023.69253731,-0.33771625,0.48130611,-0.81643820
1323446023.74156833,-0.34077775,0.47988832,-0.81583190
1323446023.79248595,-0.33876583,0.48180005,-0.81662643
1323446023.84557295,-0.33872676,0.48047122,-0.81610572
1323446023.89425254,-0.34060124,0.48143962,-0.81481504
1323446023.94448853,-0.33873585,0.48071322,-0.81623518
1323446023.99248815,-0.33886907,0.48311776,-0.81600505
1323446024.04227829,-0.34088951,0.47844481,-0.81570047
1323446024.09350085,-0.33875775,0.48071739,-0.81661826
1323446024.14953828,-0.34030119,0.48073167,-0.81644821
1323446024.19253182,-0.33907250,0.48046714,-0.81536090
1323446024.24450111,-0.33899823,0.48107693,-0.81625217
1323446024.29382157,-0.33864611,0.48119992,-0.81687015
1323446024.34153271,-0.33993936,0.48070934,-0.81464636
1323446024.39364004,-0.33941722,0.48130375,-0.81449479
1323446024.44453859,-0.33862960,0.48191753,-0.81649250
1323446024.49356294,-0.33955795,0.48178774,-0.81463319
1323446024.54452038,-0.33953357,0.47950074,-0.81448829
1323446024.60055661,-0.33914894,0.48192322,-0.81652099
1323446024.64152789,-0.33937964,0.47999856,-0.81626534
1323446024.69415259,-0.33891988,0.48034126,-0.81496984
1323446024.74450326,-0.33945200,0.48010916,-0.81525183
1323446024.79354501,-0.34050778,0.48240614,-0.81532592
1323446024.84902954,-0.33914214,0.48021686,-0.81434470
1323446024.89249349,-0.33989608,0.48156530,-0.81605017
1323446024.94153833,-0.33950219,0.47999859,-0.81614476
1323446024.99260378,-0.33846638,0.48152605,-0.81368071
1323446025.04549646,-0.33936533,0.48021275,-0.81372052
1323446025.09251261,-0.33904651,0.48168677,-0.81702280
1323446025.14449811,-0.33772475,0.48164478,-0.81427735
1323446025.19252086,-0.33883271,0.48214984,-0.81548703
1323446025.24156666,-0.33741829,0.48105571,-0.81578374
1323446025.29365206,-0.33825138,0.48165184,-0.81443352
1323446025.34096885,-0.33897954,0.47972870,-0.81382322
1323446025.39252567,-0.33974704,0.48192060,-0.81566268
1323446025.44450641,-0.33972707,0.48119605,-0.81540191
1323446025.49382281,-0.33839771,0.48093566,-0.81481820
1323446025.54449892,-0.34064230,0.48108709,-0.81557846
1323446025.59265804,-0.33929515,0.48118749,-0.81544316
1323446025.64168715,-0.33845395,0.48068655,-0.81437510
1323446025.69250345,-0.34026736,0.48202723,-0.81422925
1323446025.74453211,-0.33953479,0.48142681,-0.81507605
1323446025.80557489,-0.33894566,0.48167148,-0.81606400
1323446025.84455347,-0.33863172,0.47927520,-0.81685567
1323446025.89369965,-0.33948737,0.48191774,-0.81564850
1323446025.94454408,-0.33884829,0.48131195,-0.81586379
1323446025.99256492,-0.33875033,0.48167697,-0.81637013
1323446026.04158902,-0.34124944,0.47918749,-0.81738007
1323446026.09344935,-0.33853996,0.48144326,-0.81724793
1323446026.14715314,-0.33924320,0.48203796,-0.81589055
1323446026.19250536,-0.33904189,0.48204625,-0.81689781
1323446026.24551320,-0.33952937,0.48168549,-0.81641281
1323446026.29356980,-0.33847788,0.48191193,-0.81610233
1323446026.34153724,-0.33965760,0.47952437,-0.81665897
1323446026.39355636,-0.33886519,0.48241958,-0.81829089
1323446026.44429374,-0.33905649,0.48204905,-0.81715322
1323446026.49355245,-0.33893025,0.48252881,-0.81714970
1323446026.54452229,-0.34066230,0.48181164,-0.81583929
1323446026.59252524,-0.33941680,0.48204774,-0.81666380
1323446026.64452791,-0.33953306,0.48120570,-0.81653684
1323446026.69442248,-0.34102243,0.48063236,-0.81775975
1323446026.74164200,-0.34012920,0.47978452,-0.81808668
1323446026.79254413,-0.33860132,0.48203227,-0.81598270
1323446026.84230494,-0.34184283,0.48050535,-0.81627637
1323446026.89330935,-0.33830836,0.48324764,-0.81750262
1323446026.94155169,-0.33830705,0.48130208,-0.81545228
1323446026.99255466,-0.33981821,0.48169389,-0.81693780
1323446027.04450226,-0.33972716,0.48023507,-0.81552237
1323446027.09464979,-0.33944279,0.48082814,-0.81500190
1323446027.14449906,-0.33988979,0.48072323,-0.81604385
1323446027.19365859,-0.33912784,0.48300031,-0.81601834
1323446027.24461937,-0.34060854,0.48144102,-0.81494278
1323446027.29364038,-0.33900002,0.48131752,-0.81625396
1323446027.34556961,-0.33901951,0.48117781,-0.81434482
1323446027.39251161,-0.33924869,0.48179877,-0.81601644
1323446027.44566202,-0.33933195,0.48239195,-0.81513423
1323446027.49412632,-0.33886111,0.48107412,-0.81611735
1323446027.54152822,-0.34079355,0.48022839,-0.81379873
1323446027.59252548,-0.33909619,0.48071191,-0.81574577
1323446027.64202309,-0.33997929,0.47999972,-0.81623596
1323446027.69363976,-0.33891374,0.48130494,-0.81555039
1323446027.74151421,-0.33961454,0.48057765,-0.81431049
1323446027.79246473,-0.33849654,0.48345816,-0.81477904
1323446027.84550238,-0.33911598,0.48141700,-0.81454384
1323446027.89407325,-0.33915260,0.48046276,-0.81530285
1323446027.94463158,-0.33951828,0.48214459,-0.81469834
1323446027.99251390,-0.34039137,0.48301208,-0.81627989
1323446028.04152322,-0.34001425,0.47998306,-0.81458277
1323446028.09389305,-0.33808437,0.48140702,-0.81461459
1323446028.14152384,-0.34025711,0.48144785,-0.81638873
1323446028.20158982,-0.33912897,0.48119867,-0.81626016
1323446028.24149513,-0.33861461,0.48008949,-0.81418771
1323446028.29387212,-0.33842960,0.48130211,-0.81533170
1323446028.34156370,-0.34023511,0.47889391,-0.81324959
1323446028.39264297,-0.33931297,0.48082671,-0.81499481
1323446028.44158268,-0.33917302,0.48142397,-0.81473684
1323446028.49262905,-0.33883461,0.48142946,-0.81560934
1323446028.54152346,-0.34023401,0.48069555,-0.81300777
1323446028.59252787,-0.33933654,0.48203245,-0.81525922
1323446028.64151669,-0.33982301,0.48251235,-0.81465286
1323446028.69371510,-0.33819941,0.48152182,-0.81353879
1323446028.74449086,-0.33848545,0.48213032,-0.81394058
1323446028.79366970,-0.33924040,0.48263806,-0.81576741
1323446028.84160924,-0.33874986,0.48081270,-0.81420022
1323446028.89363790,-0.33844340,0.48022363,-0.81570661
1323446028.94452620,-0.33961570,0.48189557,-0.81336433
1323446028.99257398,-0.33889505,0.48189816,-0.81434315
1323446029.04158092,-0.33950338,0.48033586,-0.81385624
1323446029.09357667,-0.33894154,0.48226738,-0.81511199
1323446029.14159870,-0.33920771,0.48119035,-0.81537348
1323446029.19264984,-0.34034675,0.48192221,-0.81563318
1323446029.24406457,-0.33812445,0.48189524,-0.81525683
1323446029.29349375,-0.33828172,0.48166159,-0.81577295
1323446029.35329175,-0.34116167,0.48085618,-0.81643403
1323446029.40053296,-0.33944196,0.48229682,-0.81787783
1323446029.44151592,-0.33902523,0.47901666,-0.81471163
1323446029.49445176,-0.33766118,0.48155916,-0.81770980
1323446029.54152417,-0.34069619,0.48049673,-0.81659544
1323446029.59259820,-0.33881333,0.48132858,-0.81751662
1323446029.64234066,-0.33966011,0.48180720,-0.81642079
1323446029.69255090,-0.33885890,0.48157752,-0.81828451
1323446029.74156237,-0.34032387,0.48181710,-0.81671172
1323446029.79255652,-0.33815944,0.48264194,-0.81723565
1323446029.84155154,-0.34032857,0.48049662,-0.81695718
1323446029.89250898,-0.33864570,0.48194391,-0.81903917
1323446029.94452453,-0.33872357,0.48181531,-0.81815153
1323446029.99254298,-0.33955863,0.48328027,-0.81980079
1323446030.04460454,-0.33857760,0.48241556,-0.81859523
1323446030.09251022,-0.33932102,0.48135921,-0.82041067
1323446030.14952826,-0.34097639,0.48185205,-0.81986821
1323446030.19252849,-0.33855084,0.48255393,-0.82037705
1323446030.24584579,-0.33894837,0.48087382,-0.81993902
1323446030.29417419,-0.33993009,0.48185864,-0.82114524
1323446030.34550333,-0.33942932,0.48159292,-0.81920677
1323446030.39371109,-0.33881101,0.48279294,-0.81956333
1323446030.44217300,-0.33979845,0.48161662,-0.82113630
1323446030.49263954,-0.33927080,0.48245022,-0.82085884
1323446030.54551244,-0.33999515,0.48196784,-0.82000411
1323446030.60054398,-0.34009719,0.48294827,-0.82167125
1323446030.64152622,-0.33925182,0.48088500,-0.82071936
1323446030.69403768,-0.34029561,0.48140115,-0.82307118
1323446030.74551940,-0.33944005,0.48089755,-0.82174802
1323446030.79251289,-0.34004694,0.48186153,-0.82172704
1323446030.84203792,-0.34018782,0.48138443,-0.82198596
1323446030.89264059,-0.33834040,0.48232016,-0.82125503
1323446030.94549465,-0.34085253,0.48247585,-0.82215738
1323446030.99251986,-0.33995616,0.48318923,-0.82224071
1323446031.04151678,-0.34025195,0.48043185,-0.82242548
1323446031.09250998,-0.33872378,0.48246258,-0.82261091
1323446031.14563751,-0.33992597,0.48308241,-0.82319015
1323446031.19262218,-0.33841902,0.48307508,-0.82399863
1323446031.24469328,-0.34060445,0.48213410,-0.82385695
1323446031.29263473,-0.34138989,0.48202375,-0.82402641
1323446031.34549999,-0.34174010,0.48262113,-0.82328612
1323446031.39253020,-0.33935079,0.48224854,-0.82455283
1323446031.44450521,-0.33903915,0.48211566,-0.82364392
1323446031.49375844,-0.34001264,0.48297879,-0.82472152
1323446031.54549742,-0.33881679,0.48125958,-0.82292849
1323446031.59263015,-0.33936167,0.48271194,-0.82322323
1323446031.64175367,-0.33991852,0.48284492,-0.82389116
1323446031.69264007,-0.33971527,0.48357373,-0.82477641
1323446031.74450612,-0.34004200,0.48296526,-0.82377148
1323446031.79251361,-0.34006134,0.48284465,-0.82332319
1323446031.84075642,-0.34025994,0.48247546,-0.82231319
1323446031.89362383,-0.33893737,0.48392144,-0.82390577
1323446031.94064903,-0.33918187,0.48091829,-0.82402503
1323446031.99256539,-0.34105584,0.48359165,-0.82478297
1323446032.04469466,-0.34043893,0.48320702,-0.82309186
1323446032.09249735,-0.33905283,0.48199815,-0.82389838
1323446032.14462924,-0.33980906,0.48188221,-0.82355708
1323446032.20051241,-0.34026414,0.48285997,-0.82460713
1323446032.24455166,-0.33851820,0.47994745,-0.82385457
1323446032.29349065,-0.33974758,0.48225418,-0.82470185
1323446032.34154367,-0.33915269,0.48091274,-0.82351428
1323446032.39360332,-0.33960396,0.48333126,-0.82431984
1323446032.44452953,-0.34136629,0.48081800,-0.82376194
1323446032.49250340,-0.33999357,0.48237455,-0.82446164
1323446032.54136109,-0.33942044,0.48199823,-0.82353663
1323446032.59650898,-0.33941945,0.48283893,-0.82341528
1323446032.64450026,-0.34149513,0.48166010,-0.82364774
1323446032.69437075,-0.33959585,0.48224860,-0.82431167
1323446032.74552155,-0.33924133,0.48222768,-0.82263756
1323446032.79254961,-0.33853877,0.48367521,-0.82375491
1323446032.84154582,-0.34109688,0.48139438,-0.82203573
1323446032.89254522,-0.33883294,0.48128599,-0.82547569
1323446032.94161558,-0.33854505,0.48257613,-0.82254106
1323446032.99259353,-0.33932570,0.48356947,-0.82475501
1323446033.04564142,-0.33980721,0.48258340,-0.82197362
1323446033.09352589,-0.34000817,0.48331928,-0.82313561
1323446033.14554715,-0.33989942,0.48224053,-0.82363123
1323446033.19264221,-0.33935165,0.48234957,-0.82309282
1323446033.24155998,-0.34064978,0.48149931,-0.82099360
1323446033.29381633,-0.33965048,0.48368156,-0.82362783
1323446033.34550095,-0.34043667,0.48090461,-0.82186884
1323446033.39251256,-0.33843812,0.48111013,-0.82004011
1323446033.44552994,-0.33975086,0.48304906,-0.82012570
1323446033.49353075,-0.33957976,0.48222220,-0.82176507
1323446033.54462576,-0.33984444,0.48112157,-0.81973523
1323446033.59262848,-0.33894637,0.48255518,-0.81969631
1323446033.64206290,-0.33987170,0.48184752,-0.82012373
1323446033.69261861,-0.33987632,0.48148802,-0.82024872
1323446033.74151874,-0.33973378,0.48076344,-0.82010847
1323446033.79251552,-0.34001884,0.48221260,-0.82038897
1323446033.84458899,-0.33969551,0.48051590,-0.81946826
1323446033.89392543,-0.33918667,0.48075619,-0.82039905
1323446033.94550538,-0.33973739,0.48122510,-0.81865025
1323446033.99253607,-0.33835176,0.48109749,-0.81933737
1323446034.04193091,-0.33982167,0.48097754,-0.81788921
1323446034.09254885,-0.33855173,0.48267424,-0.82037795
1323446034.14150858,-0.33903506,0.48192883,-0.81759834
1323446034.20051193,-0.33859500,0.48181811,-0.81897384
1323446034.24150395,-0.33857420,0.48001185,-0.81883258
1323446034.29378676,-0.33922318,0.48076314,-0.82103759
1323446034.34177542,-0.34043199,0.47869435,-0.81752449
1323446034.39253473,-0.33907759,0.48097193,-0.81765580
1323446034.44178391,-0.34005481,0.48135528,-0.81885749
1323446034.49351978,-0.33932418,0.48099560,-0.81970590
1323446034.54151535,-0.33943623,0.47976908,-0.81728500
1323446034.59260845,-0.34005761,0.48075521,-0.81898063
1323446034.64076209,-0.33973008,0.48122373,-0.81852251
1323446034.69353271,-0.33930871,0.47989172,-0.81810808
1323446034.74451399,-0.33985174,0.48110342,-0.81840098
1323446034.79365778,-0.34007037,0.48145890,-0.81765169
1323446034.84451032,-0.34080768,0.48073855,-0.81705034
1323446034.89352822,-0.33914095,0.48146838,-0.81951046
1323446034.95368719,-0.33850166,0.48119572,-0.81660765
1323446034.99256301,-0.33983046,0.47845286,-0.81755179
1323446035.05265021,-0.34156659,0.47908115,-0.81841487
1323446035.09256887,-0.34078538,0.47700679,-0.81632096
1323446035.14060879,-0.33900544,0.47893938,-0.81891018
1323446035.19284081,-0.33980715,0.48001358,-0.81775427
1323446035.24151826,-0.34104615,0.48064050,-0.81897229
1323446035.29297876,-0.33966708,0.48157218,-0.81737578
1323446035.34152007,-0.34080166,0.48011333,-0.81475407
1323446035.40050578,-0.33865824,0.48168668,-0.81783062
1323446035.45357490,-0.33860648,0.47963423,-0.81717670
1323446035.49437833,-0.33865985,0.47817928,-0.81602347
1323446035.54152250,-0.33974695,0.47976181,-0.81673074
1323446035.59250903,-0.33892170,0.48120964,-0.81796896
1323446035.64236784,-0.33958790,0.47975481,-0.81621277
1323446035.69253612,-0.34020784,0.48073718,-0.81707954
1323446035.74149227,-0.33932847,0.48094979,-0.81525105
1323446035.79359603,-0.34005961,0.48217374,-0.81657255
1323446035.84147429,-0.34127510,0.48085082,-0.81535685
1323446035.89367032,-0.33965540,0.48312768,-0.81617540
1323446035.94156909,-0.33929434,0.48010600,-0.81556273
1323446036.00055313,-0.33923918,0.48132032,-0.81671405
1323446036.04394841,-0.33872074,0.48047376,-0.81680697
1323446036.09263587,-0.33988491,0.48084614,-0.81674600
1323446036.15423512,-0.34074387,0.48000547,-0.81602317
1323446036.19357347,-0.34057274,0.47917846,-0.81766289
1323446036.24157143,-0.33903179,0.47856393,-0.81795615
1323446036.29363036,-0.34055457,0.47869438,-0.81740385
1323446036.34550214,-0.34066680,0.48121563,-0.81679142
1323446036.39352846,-0.34043637,0.48025715,-0.81740850
1323446036.44209313,-0.33883768,0.48167422,-0.81643999
1323446036.49254274,-0.33967659,0.48108962,-0.81679845
1323446036.54548883,-0.34176239,0.47931209,-0.81728172
1323446036.60052180,-0.34007251,0.48097497,-0.81694657
1323446036.65364766,-0.33910048,0.48013544,-0.81816024
1323446036.69375134,-0.34025934,0.47690302,-0.81845516
1323446036.74194789,-0.33983955,0.47869486,-0.81768125
1323446036.80165386,-0.33978146,0.48146996,-0.81858879
1323446036.84461331,-0.33995557,0.47977477,-0.81731349
1323446036.89265513,-0.33944634,0.47917038,-0.81753588
1323446036.95395470,-0.33995977,0.48015925,-0.81960744
1323446037.00160742,-0.34208375,0.47702101,-0.81639206
1323446037.04100323,-0.33849519,0.47917569,-0.81901121
1323446037.09254408,-0.33948192,0.47905704,-0.81817341
1323446037.14557505,-0.34000766,0.47894382,-0.81832862
1323446037.20165467,-0.33983022,0.48037481,-0.81731087
1323446037.24181485,-0.33836678,0.47758961,-0.81695646
1323446037.30156517,-0.33962715,0.48014250,-0.81831634
1323446037.35382485,-0.33908689,0.47929198,-0.81802619
1323446037.39267850,-0.34086505,0.47711879,-0.81543517
1323446037.45264220,-0.33938757,0.47990325,-0.81868339
1323446037.49368787,-0.34176719,0.47703066,-0.81764758
1323446037.54448509,-0.33877027,0.47769335,-0.81494284
1323446037.60570598,-0.33894056,0.48000816,-0.81764144
1323446037.64454055,-0.34051651,0.47772294,-0.81605679
1323446037.70471025,-0.33809510,0.47890586,-0.81656915
1323446037.75368261,-0.34071741,0.47845864,-0.81721848
1323446037.80451536,-0.34100935,0.47808397,-0.81557721
1323446037.85264111,-0.33916000,0.47834489,-0.81942350
1323446037.90152740,-0.34019637,0.47725141,-0.81730866
1323446037.95362806,-0.34076232,0.47666535,-0.81822640
1323446038.00064707,-0.34005755,0.47604704,-0.81729251
1323446038.04152703,-0.33902514,0.47687772,-0.81724197
1323446038.10062194,-0.33928791,0.47906670,-0.81930834
1323446038.15353560,-0.34032890,0.47761372,-0.81731850
1323446038.20052886,-0.33961007,0.47785690,-0.81829917
1323446038.25264788,-0.34079689,0.47739267,-0.81874263
1323446038.29383659,-0.34211022,0.47621104,-0.82001740
1323446038.35364914,-0.34151304,0.47751224,-0.81846637
1323446038.40074348,-0.33949023,0.47723633,-0.81708068
1323446038.44246221,-0.33910578,0.47773698,-0.81935471
1323446038.50063443,-0.33938190,0.47798324,-0.81962615
1323446038.55440044,-0.33947730,0.47941652,-0.81804842
1323446038.60048819,-0.33922616,0.47665244,-0.81852412
1323446038.65254664,-0.33915740,0.47702304,-0.81954128
1323446038.70225334,-0.34001619,0.47618258,-0.81881857
1323446038.75250959,-0.34059349,0.47694337,-0.82203752
1323446038.80062413,-0.34034881,0.47619933,-0.82010967
1323446038.85250282,-0.33820257,0.47750816,-0.82089251
1323446038.90151882,-0.34078482,0.47657281,-0.82089984
1323446038.95250368,-0.34036791,0.47680357,-0.82036954
1323446039.00051665,-0.34210646,0.47500655,-0.81930637
1323446039.05349493,-0.34021518,0.47763866,-0.81985801
1323446039.10224009,-0.34184149,0.47500497,-0.81999415
1323446039.15250659,-0.34008986,0.47607911,-0.82092440
1323446039.20050049,-0.33969015,0.47667366,-0.82065213
1323446039.25251818,-0.33921629,0.47691697,-0.82139176
1323446039.30050325,-0.34010383,0.47617859,-0.81888896
1323446039.35412025,-0.33902511,0.47846583,-0.82011926
1323446039.40152788,-0.34140289,0.47801849,-0.82100999
1323446039.45351839,-0.33916789,0.47726819,-0.82050049
1323446039.50413275,-0.34085211,0.47497973,-0.81853944
1323446039.54999185,-0.34029722,0.47669604,-0.82221317
1323446039.60165334,-0.33963215,0.47593912,-0.81892312
1323446039.65257001,-0.33811870,0.47701168,-0.81948435
1323446039.70165014,-0.34182531,0.47682479,-0.82095855
1323446039.75398231,-0.33827773,0.47701865,-0.82000220
1323446039.80153275,-0.34027675,0.47630572,-0.81883371
1323446039.85252023,-0.34013373,0.47728610,-0.82074201
1323446039.90182614,-0.34055921,0.47643304,-0.81923187
1323446039.95253801,-0.33974910,0.47713932,-0.81855619
1323446040.00060916,-0.34147817,0.47584429,-0.81953251
1323446040.05126953,-0.33999559,0.47812396,-0.82048589
1323446040.10084772,-0.34057564,0.47547761,-0.82043749
1323446040.15385413,-0.33834681,0.47653079,-0.81981379
1323446040.20157075,-0.34031838,0.47775811,-0.82018501
1323446040.25253248,-0.33941764,0.47690868,-0.82038432
1323446040.30452347,-0.34142718,0.47559676,-0.81946647
1323446040.35353661,-0.34125572,0.47765332,-0.82074475
1323446040.40464902,-0.34003177,0.47534469,-0.81919527
1323446040.45290208,-0.33874109,0.47715712,-0.82130134
1323446040.50552869,-0.34143600,0.47489858,-0.82117808
